Taunton, MA

11:42 PM EDT on July 21, 2017 (GMT -0400)
Taunton Municipal

Weather History for KTAN - August, 2014

Change the Weather History Date:

Monday, August 4, 2014

  Actual Average Record
Temperature  
Mean Temperature 73 °F -  
Max Temperature 84 °F 84 °F 95 °F (1980)
Min Temperature 64 °F 63 °F 45 °F (1959)
Cooling Degree Days 8    
Growing Degree Days 23 (Base 50)    
Moisture  
Dew Point 65 °F    
Average Humidity 82    
Maximum Humidity 97    
Minimum Humidity 56    
Precipitation  
Precipitation 0.00 in - - ()
Sea Level Pressure  
Sea Level Pressure 30.03 in    
Wind  
Wind Speed 2 mph (SW)    
Max Wind Speed 10 mph    
Max Gust Speed 17 mph    
Visibility 8 miles    
Events      
Averages and records for this station are not official NWS values.
T = Trace of Precipitation, MM = Missing Value Source: NWS Daily Summary

Daily Weather History Graph

Daily Weather History Graph

Search for Another Location

Airport or City:

Trip Planner

Search our weather history database for the weather conditions in past years. The results will help you decide how hot, cold, wet, or windy it might be!

Date:

Astronomy

Aug. 04, 2014 Rise Set
Actual Time 5:40 AM EDT 7:58 PM EDT
Civil Twilight 5:09 AM EDT 8:29 PM EDT
Nautical Twilight 4:31 AM EDT 9:08 PM EDT
Astronomical Twilight 3:48 AM EDT 9:50 PM EDT
Moon 2:07 PM EDT (8/4) No Moon Set
Length of Visible Light 15h 20m
Length of Day
14h 17m
First Quarter, 57% of the Moon is Illuminated
Aug 4
First Quarter
Aug 10
Full
Aug 17
Last Quarter
Aug 25
New
Sep 2
First Quarter

Hourly Weather History & Observations

Time (EDT) Temp. Heat Index Dew Point Humidity Pressure Visibility Wind Dir Wind Speed Gust Speed Precip Events Conditions
12:07 AM 66.0 °F - 64.0 °F 93% 30.04 in 10.0 mi Calm Calm - N/A   Overcast
12:31 AM 64.9 °F - 64.0 °F 97% 30.04 in 10.0 mi Calm Calm - N/A   Overcast
12:52 AM 64.9 °F - 63.0 °F 93% 30.04 in 10.0 mi Calm Calm - N/A   Overcast
1:41 AM 66.0 °F - 64.0 °F 93% 30.04 in 1.8 mi Calm Calm - N/A   Overcast
2:28 AM 66.0 °F - 64.0 °F 93% 30.04 in 1.0 mi Calm Calm - N/A   Mist
2:52 AM 66.0 °F - 64.0 °F 93% 30.04 in 0.8 mi Calm Calm - N/A   Mist
3:18 AM 66.0 °F - 64.0 °F 93% 30.04 in 1.5 mi Calm Calm - N/A   Overcast
3:24 AM 66.0 °F - 64.9 °F 96% 30.03 in 3.0 mi Calm Calm - N/A   Overcast
3:45 AM 66.0 °F - 64.0 °F 93% 30.03 in 5.0 mi Calm Calm - N/A   Overcast
3:52 AM 66.0 °F - 64.9 °F 96% 30.03 in 5.0 mi Calm Calm - N/A   Overcast
5:05 AM 66.0 °F - 64.9 °F 96% 30.02 in 7.0 mi Calm Calm - N/A   Overcast
6:45 AM 66.9 °F - 64.9 °F 93% 30.04 in 10.0 mi Calm Calm - N/A   Overcast
6:52 AM 66.9 °F - 64.9 °F 93% 30.04 in 10.0 mi WSW 3.5 mph - N/A   Overcast
7:25 AM 68.0 °F - 64.9 °F 90% 30.04 in 10.0 mi West 3.5 mph - N/A   Scattered Clouds
7:34 AM 66.9 °F - 64.0 °F 90% 30.05 in 10.0 mi WSW 6.9 mph - N/A   Mostly Cloudy
8:52 AM 69.1 °F - 64.0 °F 84% 30.04 in 10.0 mi Variable 3.5 mph - N/A   Mostly Cloudy
9:14 AM 72.0 °F - 64.9 °F 78% 30.04 in 10.0 mi SSW 3.5 mph - N/A   Scattered Clouds
9:52 AM 73.9 °F - 64.9 °F 73% 30.04 in 10.0 mi Variable 4.6 mph - N/A   Partly Cloudy
10:52 AM 77.0 °F - 66.0 °F 69% 30.04 in 10.0 mi WSW 8.1 mph - N/A   Partly Cloudy
11:52 AM 78.1 °F - 66.0 °F 66% 30.04 in 10.0 mi WSW 4.6 mph - N/A   Mostly Cloudy
12:04 PM 78.1 °F - 66.0 °F 66% 30.03 in 10.0 mi West 6.9 mph - N/A   Mostly Cloudy
12:34 PM 80.1 °F 82.3 °F 66.9 °F 64% 30.03 in 10.0 mi Variable 6.9 mph - N/A   Mostly Cloudy
12:52 PM 81.0 °F 83.0 °F 66.0 °F 60% 30.03 in 10.0 mi WSW 6.9 mph 16.1 mph N/A   Scattered Clouds
1:52 PM 81.0 °F 82.7 °F 64.9 °F 58% 30.02 in 10.0 mi SSW 9.2 mph - N/A   Mostly Cloudy
2:52 PM 82.0 °F 83.8 °F 64.9 °F 56% 30.01 in 10.0 mi SSW 5.8 mph - N/A   Partly Cloudy
3:52 PM 82.9 °F 85.0 °F 66.0 °F 56% 30.00 in 10.0 mi SW 8.1 mph - N/A   Scattered Clouds
5:52 PM 77.0 °F - 66.9 °F 71% 30.01 in 10.0 mi SSW 10.4 mph 17.3 mph N/A   Mostly Cloudy
6:52 PM 75.9 °F - 66.9 °F 74% 30.01 in 10.0 mi SSW 10.4 mph - N/A   Clear
7:52 PM 73.9 °F - 66.9 °F 79% 30.01 in 10.0 mi SW 5.8 mph - N/A   Clear
8:52 PM 72.0 °F - 66.9 °F 84% 30.03 in 10.0 mi SSW 3.5 mph - N/A   Clear
9:52 PM 71.1 °F - 66.9 °F 87% 30.04 in 10.0 mi SSW 3.5 mph - N/A   Clear
10:52 PM 70.0 °F - 66.9 °F 90% 30.03 in 10.0 mi Calm Calm - N/A   Clear
11:52 PM 66.0 °F - 64.9 °F 96% 30.03 in 6.0 mi Calm Calm - N/A   Clear